Location: Mississauga
(43.5802°N, 79.6166°W)
Time: 12:33:19
(UTC-04:00)

Cosmos 1437 Rocket - Visible Passes

Search period start: 04 September 2015 00:00
Search period end: 14 September 2015 00:00
Orbit: 519 x 561 km, 81.2° (Epoch: 02 September)

Date Brightness Start Highest point End Pass type
(mag) Time Alt. Az. Time Alt. Az. Time Alt. Az.
04 Sep 5.5 04:07:26 10° ESE 04:09:33 15° E 04:11:49 10° NE visible
04 Sep 3.3 05:42:41 14° SW 05:45:38 38° WNW 05:49:19 10° N visible
05 Sep 5.4 04:00:33 12° ESE 04:02:13 15° E 04:04:35 10° NE visible
05 Sep 3.3 05:36:06 20° SW 05:38:20 37° WNW 05:41:59 10° N visible
06 Sep 5.3 03:53:55 14° ESE 03:54:54 16° E 03:57:20 10° NE visible
06 Sep 3.4 05:29:29 26° WSW 05:31:01 36° WNW 05:34:40 10° N visible
07 Sep 5.3 03:47:14 16° E 03:47:35 16° E 03:50:05 10° NE visible
07 Sep 3.4 05:22:47 31° WSW 05:23:43 35° WNW 05:27:20 10° N visible
08 Sep 5.3 03:40:30 17° E 03:40:30 17° E 03:42:51 10° NE visible
08 Sep 3.4 05:16:03 33° W 05:16:24 34° WNW 05:20:01 10° N visible
09 Sep 5.4 03:33:44 16° ENE 03:33:44 16° ENE 03:35:36 10° NE visible
09 Sep 3.6 05:09:16 33° WNW 05:09:16 33° WNW 05:12:41 10° N visible
10 Sep 5.6 03:26:55 16° ENE 03:26:55 16° ENE 03:28:20 10° NE visible
10 Sep 3.8 05:02:27 30° NW 05:02:27 30° NW 05:05:21 10° N visible
11 Sep 5.7 03:20:04 14° ENE 03:20:04 14° ENE 03:21:05 10° NE visible
11 Sep 4.1 04:55:36 26° NW 04:55:36 26° NW 04:58:02 10° N visible
12 Sep 5.9 03:13:10 13° NE 03:13:10 13° NE 03:13:49 10° NE visible
12 Sep 4.4 04:48:43 23° NNW 04:48:43 23° NNW 04:50:42 10° N visible
13 Sep 6.0 03:06:16 11° NE 03:06:16 11° NE 03:06:33 10° NE visible
13 Sep 4.7 04:41:48 20° NNW 04:41:48 20° NNW 04:43:22 10° N visible
